Time,TemperatureF,DewpointF,PressureIn,WindDirection,WindDirectionDegrees,WindSpeedMPH,WindSpeedGustMPH,Humidity,HourlyPrecipIn,Conditions,Clouds,dailyrainin,SoftwareType,DateUTC
2013-07-24 00:22:00,70.0,69.0,29.61,SSW,194,0.0,0.0,96,0.00,,,2.47,,2013-07-24 04:22:00,
2013-07-24 00:32:00,70.0,69.0,29.61,SSW,194,0.0,0.0,96,0.00,,,2.47,,2013-07-24 04:32:00,
2013-07-24 00:43:00,70.0,69.0,29.61,SSW,194,0.0,0.0,96,0.00,,,2.47,,2013-07-24 04:43:00,
2013-07-24 00:52:00,70.0,69.0,29.61,SSW,194,0.0,0.0,96,0.00,,,2.47,,2013-07-24 04:52:00,
2013-07-24 01:22:00,70.0,69.0,29.59,SSW,194,0.0,0.0,96,0.00,,,2.47,,2013-07-24 05:22:00,
2013-07-24 01:33:00,70.0,69.0,29.60,SSW,194,0.0,0.0,96,0.00,,,2.47,,2013-07-24 05:33:00,
2013-07-24 01:43:00,70.0,69.0,29.60,SSW,194,0.0,0.0,96,0.00,,,2.47,,2013-07-24 05:43:00,
2013-07-24 01:52:00,69.0,68.0,29.59,SSW,194,0.0,0.0,96,0.00,,,2.47,,2013-07-24 05:52:00,
2013-07-24 02:01:00,69.0,68.0,29.60,SSW,194,0.0,0.0,96,0.00,,,2.47,,2013-07-24 06:01:00,
2013-07-24 02:24:00,69.0,68.0,29.60,SSW,194,0.0,0.0,96,0.00,,,2.47,,2013-07-24 06:24:00,
2013-07-24 02:53:00,69.0,68.0,29.59,SSW,194,0.0,0.0,96,0.00,,,2.47,,2013-07-24 06:53:00,
2013-07-24 03:02:00,69.0,68.0,29.59,SSW,194,0.0,0.0,96,0.00,,,2.47,,2013-07-24 07:02:00,
2013-07-24 03:12:00,69.0,68.0,29.59,SSW,194,0.0,0.0,96,0.00,,,2.47,,2013-07-24 07:12:00,
2013-07-24 03:22:00,69.0,68.0,29.59,SSW,194,0.0,0.0,96,0.00,,,2.47,,2013-07-24 07:22:00,
2013-07-24 03:32:00,69.0,68.0,29.59,SSW,194,0.0,0.0,96,0.00,,,2.47,,2013-07-24 07:32:00,
2013-07-24 04:02:00,69.0,68.0,29.59,SSW,194,0.0,0.0,96,0.00,,,2.47,,2013-07-24 08:02:00,
2013-07-24 04:12:00,69.0,68.0,29.59,SSW,194,0.0,0.0,96,0.00,,,2.47,,2013-07-24 08:12:00,
2013-07-24 04:22:00,69.0,68.0,29.59,SSW,194,0.0,0.0,96,0.00,,,2.47,,2013-07-24 08:22:00,
2013-07-24 04:32:00,69.0,68.0,29.59,SSW,194,0.0,0.0,96,0.00,,,2.47,,2013-07-24 08:32:00,
2013-07-24 04:43:00,69.0,68.0,29.59,SSW,194,0.0,0.0,96,0.00,,,2.46,,2013-07-24 08:43:00,
2013-07-24 04:52:00,69.0,68.0,29.59,SSW,194,0.0,0.0,96,0.00,,,2.46,,2013-07-24 08:52:00,
2013-07-24 05:02:00,69.0,68.0,29.60,SSW,194,0.0,0.0,96,0.00,,,2.46,,2013-07-24 09:02:00,
2013-07-24 05:22:00,69.0,68.0,29.60,SSW,194,0.0,0.0,96,0.00,,,2.46,,2013-07-24 09:22:00,
2013-07-24 05:32:00,69.0,68.0,29.60,WSW,242,0.0,0.0,96,0.00,,,2.42,,2013-07-24 09:32:00,
2013-07-24 05:43:00,68.0,67.0,29.60,WSW,242,0.0,0.0,96,0.00,,,2.42,,2013-07-24 09:43:00,
2013-07-24 05:53:00,68.0,67.0,29.60,WSW,242,0.0,0.0,96,0.00,,,2.42,,2013-07-24 09:53:00,
2013-07-24 06:02:00,68.0,67.0,29.60,WSW,242,0.0,0.0,96,0.00,,,2.42,,2013-07-24 10:02:00,
2013-07-24 06:22:00,68.0,67.0,29.61,WSW,242,0.0,0.0,96,0.00,,,2.42,,2013-07-24 10:22:00,
2013-07-24 06:43:00,68.0,67.0,29.61,WSW,242,0.0,0.0,96,0.00,,,2.35,,2013-07-24 10:43:00,
2013-07-24 06:53:00,68.0,67.0,29.61,WSW,242,0.0,0.0,96,0.00,,,2.35,,2013-07-24 10:53:00,
2013-07-24 07:02:00,69.0,68.0,29.62,WSW,242,0.0,0.0,96,0.00,,,2.35,,2013-07-24 11:02:00,
2013-07-24 07:12:00,69.0,68.0,29.62,WSW,242,0.0,0.0,96,0.00,,,2.35,,2013-07-24 11:12:00,
2013-07-24 07:22:00,70.0,69.0,29.62,WSW,242,0.0,0.0,96,0.00,,,2.35,,2013-07-24 11:22:00,
2013-07-24 07:44:00,70.0,69.0,29.62,WSW,242,0.0,0.0,96,0.00,,,2.15,,2013-07-24 11:44:00,
2013-07-24 07:52:00,70.0,69.0,29.62,WSW,242,0.0,0.0,96,0.00,,,2.15,,2013-07-24 11:52:00,
2013-07-24 08:02:00,71.0,70.0,29.63,WSW,243,0.0,1.0,96,0.00,,,2.15,,2013-07-24 12:02:00,
2013-07-24 08:12:00,71.0,70.0,29.63,WSW,243,0.0,1.0,96,0.00,,,2.15,,2013-07-24 12:12:00,
2013-07-24 08:22:00,72.0,71.0,29.64,WSW,243,0.0,3.0,96,0.00,,,2.15,,2013-07-24 12:22:00,
2013-07-24 08:32:00,72.0,71.0,29.64,WSW,243,0.0,0.0,96,0.00,,,1.05,,2013-07-24 12:32:00,
2013-07-24 08:52:00,73.0,72.0,29.64,WSW,243,0.0,4.0,96,0.00,,,1.05,,2013-07-24 12:52:00,
2013-07-24 09:22:00,73.0,72.0,29.65,WSW,249,1.0,5.0,96,0.00,,,1.05,,2013-07-24 13:22:00,
2013-07-24 09:32:00,72.0,70.0,29.65,WSW,251,0.0,6.0,95,0.00,,,0.87,,2013-07-24 13:32:00,
2013-07-24 09:53:00,74.0,72.0,29.66,WSW,244,0.0,5.0,94,0.00,,,0.87,,2013-07-24 13:53:00,
2013-07-24 10:02:00,76.0,72.0,29.66,WNW,295,2.0,9.0,88,0.00,,,0.87,,2013-07-24 14:02:00,
2013-07-24 10:12:00,76.0,72.0,29.66,WNW,295,2.0,9.0,88,0.00,,,0.87,,2013-07-24 14:12:00,
2013-07-24 10:22:00,78.0,71.0,29.67,WNW,302,2.0,7.0,79,0.00,,,0.87,,2013-07-24 14:22:00,
2013-07-24 10:32:00,80.0,69.0,29.67,SSW,208,0.0,6.0,70,0.00,,,0.84,,2013-07-24 14:32:00,
2013-07-24 10:43:00,82.0,71.0,29.67,West,279,0.0,8.0,69,0.00,,,0.84,,2013-07-24 14:43:00,
2013-07-24 10:55:00,82.0,71.0,29.67,West,279,0.0,8.0,69,0.00,,,0.84,,2013-07-24 14:55:00,
2013-07-24 11:12:00,82.0,69.0,29.67,WSW,251,5.0,13.0,66,0.00,,,0.84,,2013-07-24 15:12:00,
2013-07-24 11:22:00,83.0,69.0,29.68,WNW,302,3.0,7.0,62,0.00,,,0.84,,2013-07-24 15:22:00,
2013-07-24 11:33:00,83.0,70.0,29.69,West,263,3.0,8.0,65,0.00,,,0.83,,2013-07-24 15:33:00,
2013-07-24 11:43:00,83.0,69.0,29.69,NW,314,4.0,11.0,62,0.00,,,0.83,,2013-07-24 15:43:00,
2013-07-24 11:53:00,83.0,69.0,29.69,NW,314,4.0,11.0,62,0.00,,,0.83,,2013-07-24 15:53:00,
2013-07-24 12:02:00,83.0,69.0,29.70,West,267,3.0,8.0,63,0.00,,,0.83,,2013-07-24 16:02:00,
2013-07-24 12:22:00,83.0,67.0,29.70,WNW,302,0.0,9.0,59,0.00,,,0.83,,2013-07-24 16:22:00,
2013-07-24 12:33:00,82.0,67.0,29.71,NW,318,4.0,9.0,61,0.00,,,0.82,,2013-07-24 16:33:00,
2013-07-24 12:43:00,81.0,66.0,29.71,WSW,255,0.0,12.0,61,0.00,,,0.82,,2013-07-24 16:43:00,
2013-07-24 12:53:00,81.0,66.0,29.71,WSW,255,0.0,12.0,61,0.00,,,0.82,,2013-07-24 16:53:00,
2013-07-24 13:03:00,83.0,68.0,29.72,West,278,4.0,13.0,60,0.00,,,0.82,,2013-07-24 17:03:00,
2013-07-24 13:12:00,83.0,67.0,29.71,SSW,200,1.0,8.0,59,0.00,,,0.82,,2013-07-24 17:12:00,
2013-07-24 13:22:00,83.0,67.0,29.71,SSW,200,1.0,8.0,59,0.00,,,0.82,,2013-07-24 17:22:00,
2013-07-24 13:33:00,82.0,66.0,29.72,West,281,2.0,15.0,59,0.00,,,0.13,,2013-07-24 17:33:00,
2013-07-24 13:53:00,83.0,69.0,29.72,SW,230,2.0,8.0,62,0.00,,,0.13,,2013-07-24 17:53:00,
2013-07-24 14:03:00,83.0,65.0,29.72,NNE,15,2.0,11.0,54,0.00,,,0.13,,2013-07-24 18:03:00,
2013-07-24 14:22:00,83.0,68.0,29.72,NW,315,3.0,9.0,60,0.00,,,0.13,,2013-07-24 18:22:00,
2013-07-24 14:33:00,83.0,66.0,29.71,WSW,244,0.0,8.0,57,0.00,,,0.10,,2013-07-24 18:33:00,
2013-07-24 14:43:00,83.0,66.0,29.72,NW,315,2.0,15.0,56,0.00,,,0.10,,2013-07-24 18:43:00,
2013-07-24 14:52:00,83.0,66.0,29.72,NW,315,2.0,15.0,56,0.00,,,0.10,,2013-07-24 18:52:00,
2013-07-24 15:03:00,83.0,64.0,29.72,NW,312,1.0,13.0,52,0.00,,,0.10,,2013-07-24 19:03:00,
2013-07-24 15:12:00,83.0,64.0,29.72,NW,312,1.0,13.0,52,0.00,,,0.10,,2013-07-24 19:12:00,
2013-07-24 15:22:00,82.0,66.0,29.72,West,265,4.0,10.0,58,0.00,,,0.10,,2013-07-24 19:22:00,
2013-07-24 15:33:00,84.0,68.0,29.73,SSW,204,0.0,7.0,58,0.00,,,0.05,,2013-07-24 19:33:00,
2013-07-24 15:43:00,84.0,65.0,29.73,NW,306,0.0,7.0,53,0.00,,,0.05,,2013-07-24 19:43:00,
2013-07-24 15:53:00,84.0,65.0,29.73,NW,306,0.0,7.0,53,0.00,,,0.05,,2013-07-24 19:53:00,
2013-07-24 16:02:00,83.0,66.0,29.73,WSW,254,2.0,11.0,57,0.00,,,0.05,,2013-07-24 20:02:00,
2013-07-24 16:13:00,82.0,64.0,29.74,NNE,13,2.0,10.0,54,0.00,,,0.05,,2013-07-24 20:13:00,
2013-07-24 16:23:00,82.0,64.0,29.74,NNE,13,2.0,10.0,54,0.00,,,0.05,,2013-07-24 20:23:00,
2013-07-24 16:33:00,84.0,65.0,29.75,SW,226,0.0,9.0,53,0.00,,,0.01,,2013-07-24 20:33:00,
2013-07-24 16:43:00,82.0,64.0,29.75,WNW,302,0.0,8.0,55,0.00,,,0.01,,2013-07-24 20:43:00,
2013-07-24 16:53:00,82.0,64.0,29.75,WNW,302,0.0,8.0,55,0.00,,,0.01,,2013-07-24 20:53:00,
2013-07-24 17:03:00,83.0,63.0,29.75,WNW,298,0.0,5.0,51,0.00,,,0.01,,2013-07-24 21:03:00,
2013-07-24 17:12:00,82.0,61.0,29.75,NNE,15,0.0,6.0,50,0.00,,,0.01,,2013-07-24 21:12:00,
2013-07-24 17:22:00,82.0,61.0,29.75,NNE,15,0.0,6.0,50,0.00,,,0.01,,2013-07-24 21:22:00,
2013-07-24 17:32:00,81.0,65.0,29.75,WNW,302,1.0,6.0,58,0.00,,,0.00,,2013-07-24 21:32:00,
2013-07-24 17:52:00,81.0,65.0,29.76,WNW,300,0.0,5.0,59,0.00,,,0.00,,2013-07-24 21:52:00,
2013-07-24 18:02:00,80.0,64.0,29.76,WNW,296,0.0,6.0,58,0.00,,,0.00,,2013-07-24 22:02:00,
2013-07-24 18:12:00,80.0,64.0,29.76,WNW,296,0.0,6.0,58,0.00,,,0.00,,2013-07-24 22:12:00,
2013-07-24 18:22:00,80.0,62.0,29.76,WNW,292,0.0,6.0,54,0.00,,,0.00,,2013-07-24 22:22:00,
2013-07-24 18:43:00,80.0,62.0,29.78,NW,304,0.0,1.0,55,0.00,,,0.00,,2013-07-24 22:43:00,
2013-07-24 18:53:00,80.0,62.0,29.78,NW,304,0.0,1.0,55,0.00,,,0.00,,2013-07-24 22:53:00,
2013-07-24 19:02:00,79.0,64.0,29.78,NW,304,0.0,1.0,60,0.00,,,0.00,,2013-07-24 23:02:00,
2013-07-24 19:22:00,77.0,63.0,29.79,NW,304,0.0,1.0,62,0.00,,,0.00,,2013-07-24 23:22:00,
2013-07-24 19:52:00,74.0,64.0,29.80,NW,304,0.0,0.0,71,0.00,,,0.00,,2013-07-24 23:52:00,
2013-07-24 20:02:00,73.0,64.0,29.81,NW,304,0.0,0.0,73,0.00,,,0.00,,2013-07-25 00:02:00,
2013-07-24 20:12:00,72.0,63.0,29.81,NW,304,0.0,0.0,74,0.00,,,0.00,,2013-07-25 00:12:00,
2013-07-24 20:22:00,72.0,63.0,29.81,NW,304,0.0,0.0,74,0.00,,,0.00,,2013-07-25 00:22:00,
2013-07-24 20:33:00,71.0,63.0,29.82,NW,304,0.0,0.0,77,0.00,,,0.00,,2013-07-25 00:33:00,
2013-07-24 20:43:00,71.0,64.0,29.83,NW,304,0.0,0.0,78,0.00,,,0.00,,2013-07-25 00:43:00,
2013-07-24 20:53:00,71.0,64.0,29.83,NW,304,0.0,0.0,78,0.00,,,0.00,,2013-07-25 00:53:00,
2013-07-24 21:03:00,70.0,64.0,29.84,NW,304,0.0,2.0,81,0.00,,,0.00,,2013-07-25 01:03:00,
2013-07-24 21:22:00,70.0,64.0,29.86,NNE,15,1.0,6.0,81,0.00,,,0.00,,2013-07-25 01:22:00,
2013-07-24 21:32:00,69.0,60.0,29.87,ENE,64,0.0,2.0,73,0.00,,,0.00,,2013-07-25 01:32:00,
2013-07-24 21:53:00,69.0,59.0,29.88,North,9,0.0,2.0,71,0.00,,,0.00,,2013-07-25 01:53:00,
2013-07-24 22:12:00,69.0,59.0,29.89,NNE,12,0.0,2.0,71,0.00,,,0.00,,2013-07-25 02:12:00,
2013-07-24 22:22:00,68.0,59.0,29.90,WNW,298,0.0,4.0,72,0.00,,,0.00,,2013-07-25 02:22:00,
2013-07-24 22:43:00,68.0,59.0,29.90,SW,225,0.0,4.0,73,0.00,,,0.00,,2013-07-25 02:43:00,
2013-07-24 22:53:00,68.0,59.0,29.91,NNE,16,0.0,5.0,72,0.00,,,0.00,,2013-07-25 02:53:00,
2013-07-24 23:02:00,67.0,57.0,29.92,NE,45,0.0,8.0,70,0.00,,,0.00,,2013-07-25 03:02:00,
2013-07-24 23:16:00,67.0,57.0,29.92,NE,45,0.0,8.0,70,0.00,,,0.00,,2013-07-25 03:16:00,
2013-07-24 23:24:00,67.0,57.0,29.93,NNE,13,0.0,3.0,70,0.00,,,0.00,,2013-07-25 03:24:00,
2013-07-24 23:39:00,66.0,56.0,29.93,NNW,345,0.0,6.0,71,0.00,,,0.00,,2013-07-25 03:39:00,
2013-07-24 23:52:00,66.0,57.0,29.95,NNE,17,0.0,8.0,72,0.00,,,0.00,,2013-07-25 03:52:00,